Flag for U.S.A. Weather past 2 weeks in Sevierville, Tennessee, U.S.A.

Now
43 °F

Passing clouds.


Feels Like: 41 °F
Forecast: 23 / 43 °F
Wind: 3 mph from East

Location: McGhee Tyson Airport

Current Time: Jan 28, 2015 at 6:16:54 PM

Latest Report: Jan 28, 2015 at 4:53 PM


Visibility: 10 mi

Pressure: 30.27 "Hg

Humidity: 35%

Dew point: 17 °F

Location of SeviervilleLocation

Historic Weather in Sevierville — Graph

°F

Sevierville temperature yesterday

Maximum temperature yesterday: 35 °F (at 3:00 PM)
Minimum temperature yesterday: 30 °F (at 12:53 AM)
Average temperature yesterday: 33 °F

Past Weeks' High & Low Weather Summary

 TemperatureHumidityPressure
High62 °F (Jan 20, 2:53 PM)100% (Jan 13, 11:53 PM)30.37 "Hg (Jan 13, 11:53 PM)
Low24 °F (Jan 17, 7:53 AM)29% (Jan 18, 3:53 PM)29.66 "Hg (Jan 26, 1:53 AM)
Average40 °F70%30.07 "Hg
* Reported Jan 13 4:53 PM — Jan 28 4:53 PM, Sevierville, Weather by CustomWeather, © 2014

Note: Actual official high and low records may vary slightly from our data, if they occured in-between our weather recording intervals... More about our weather records

Advertising

Sevierville weather history for previous 24 hours

 ConditionsComfort  
Time TempWeatherWind HumidityBarometerVisibility
4:53 PM
Jan 28
43 °FPassing clouds.3 mph35%30.27 "Hg10 mi
3:53 PM44 °FPassing clouds.No wind31%30.28 "Hg10 mi
2:53 PM42 °FPassing clouds.3 mph32%30.29 "Hg10 mi
12:53 PM38 °FPassing clouds.6 mph37%30.32 "Hg10 mi
11:53 AM35 °FPassing clouds.7 mph46%30.37 "Hg10 mi
10:53 AM32 °FSunny.5 mph52%30.37 "Hg10 mi
9:53 AM30 °FSunny.9 mph56%30.36 "Hg10 mi
8:53 AM28 °FSunny.9 mph61%30.34 "Hg10 mi
6:53 AM24 °FClear.6 mph75%30.30 "Hg10 mi
5:53 AM25 °FClear.7 mph75%30.27 "Hg10 mi
4:53 AM27 °FClear.9 mph72%30.25 "Hg10 mi
3:53 AM28 °FClear.3 mph72%30.23 "Hg10 mi
2:53 AM28 °FClear.3 mph69%30.22 "Hg10 mi
1:53 AM29 °FClear.6 mph66%30.21 "Hg10 mi
12:53 AM31 °FOvercast.13 mph67%30.20 "Hg10 mi
11:53 PM
Jan 27
32 °FOvercast.8 mph66%30.20 "Hg10 mi
10:53 PM33 °FOvercast.10 mph70%30.19 "Hg10 mi
9:53 PM33 °FMostly cloudy.6 mph72%30.17 "Hg10 mi
8:53 PM33 °FOvercast.10 mph75%30.16 "Hg10 mi
7:53 PM34 °FOvercast.7 mph76%30.14 "Hg10 mi
6:53 PM35 °FMostly cloudy.No wind72%30.12 "Hg10 mi
Weather by CustomWeather, © 2014

See weather overviewHow to use our weather pages